Back to catalog

TITAN 4B R/B

AliveVLEO
NORAD 26474·ROCKET BODY·🇺🇸 United States

Launched Aug 17, 2000 from Vandenberg Space Force Base

Loading…

Next Passes (next 24 hours)

TLE

FreshSource: Space-Track

Epoch: Sep 14, 2026, 12:35 UTC

1 26474U 00047B   26257.52468729  .00001949  00000-0  12366-3 0  9993
2 26474  67.9859 229.0209 0041960 195.6663 164.3192 15.10603845421421

Track TITAN 4B R/B in real time with AllMySat

Download on the App Store